Weather History for Cadillac, MI

Change the Weather History Date:

Tuesday, June 4, 2013

  Actual Average Record
Temperature  
Mean Temperature 53 °F -  
Max Temperature 70 °F 70 °F 90 °F (1948)
Min Temperature 36 °F 43 °F 28 °F (1950)
Degree Days  
Heating Degree Days 12    
Growing Degree Days 3 (Base 50)    
Moisture  
Dew Point 36 °F    
Average Humidity 58    
Maximum Humidity 89    
Minimum Humidity 26    
Precipitation  
Precipitation 0.00 in - - ()
Sea Level Pressure  
Sea Level Pressure 30.16 in    
Wind  
Wind Speed 2 mph (North)    
Max Wind Speed 12 mph    
Max Gust Speed -    
Visibility 10 miles    
Events      
Averages and records for this station are not official NWS values.
T = Trace of Precipitation, MM = Missing Value Source: NWS Daily Summary

Daily Weather History Graph

Daily Weather History Graph

Search for Another Location

Airport:

Trip Planner

Search our weather history database for the weather conditions in past years. The results will help you decide how hot, cold, wet, or windy it might be!

Date:

Astronomy

Jun. 04, 2013 Rise Set
Actual Time 5:59 AM EDT 9:21 PM EDT
Civil Twilight 5:23 AM EDT 9:57 PM EDT
Nautical Twilight 4:36 AM EDT 10:44 PM EDT
Astronomical Twilight 3:38 AM EDT 11:43 PM EDT
Moon 3:36 AM EDT (6/4) 5:43 PM EDT (6/4)
Length of Visible Light 16h 33m
Length of Day
15h 21m
Waning Crescent, 14% of the Moon is Illuminated
Jun 4
Waning Crescent
Jun 8
New
Jun 16
First Quarter
Jun 23
Full
Jun 30
Last Quarter

Hourly Weather History & Observations

Time (EDT) Temp. Windchill Dew Point Humidity Pressure Visibility Wind Dir Wind Speed Gust Speed Precip Events Conditions
12:15 AM 42.4 °F - 36.9 °F 81% 30.11 in 10.0 mi Calm Calm - N/A   Clear
12:35 AM 42.6 °F - 36.9 °F 80% 30.12 in 10.0 mi Calm Calm - N/A   Clear
12:54 AM 39.2 °F 37.0 °F 35.4 °F 86% 30.13 in 10.0 mi NNW 3.5 mph - N/A   Clear
1:15 AM 39.0 °F - 35.1 °F 86% 30.13 in 10.0 mi Calm Calm - N/A   Clear
1:35 AM 39.2 °F 37.0 °F 34.9 °F 84% 30.13 in 10.0 mi North 3.5 mph - N/A   Clear
1:54 AM 36.9 °F 33.1 °F 32.9 °F 86% 30.13 in 10.0 mi NNW 4.6 mph - N/A   Clear
2:15 AM 38.7 °F 36.3 °F 34.7 °F 86% 30.13 in 10.0 mi North 3.5 mph - N/A   Clear
2:35 AM 38.1 °F - 33.6 °F 84% 30.13 in 10.0 mi Calm Calm - N/A   Clear
2:54 AM 38.7 °F - 34.9 °F 86% 30.13 in 10.0 mi Calm Calm - N/A   Clear
3:15 AM 38.7 °F - 33.6 °F 82% 30.13 in 10.0 mi Calm Calm - N/A   Clear
3:35 AM 37.9 °F - 34.3 °F 87% 30.13 in 10.0 mi Calm Calm - N/A   Clear
3:54 AM 36.3 °F - 32.7 °F 87% 30.13 in 10.0 mi Calm Calm - N/A   Clear
4:15 AM 36.1 °F - 32.9 °F 88% 30.13 in 10.0 mi Calm Calm - N/A   Clear
4:35 AM 36.1 °F - 33.3 °F 89% 30.13 in 10.0 mi Calm Calm - N/A   Clear
4:55 AM 36.1 °F - 33.1 °F 89% 30.13 in 10.0 mi Calm Calm - N/A   Clear
5:15 AM 36.1 °F - 33.1 °F 89% 30.13 in 10.0 mi Calm Calm - N/A   Clear
5:35 AM 36.1 °F - 33.3 °F 89% 30.14 in 10.0 mi Calm Calm - N/A   Clear
5:55 AM 36.1 °F 33.5 °F 33.3 °F 89% 30.14 in 10.0 mi NE 3.5 mph - N/A   Clear
6:15 AM 36.1 °F - 33.1 °F 89% 30.14 in 10.0 mi Calm Calm - N/A   Clear
6:35 AM 38.7 °F - 34.2 °F 84% 30.15 in 10.0 mi Calm Calm - N/A   Clear
6:55 AM 38.7 °F - 34.7 °F 86% 30.16 in 10.0 mi Calm Calm - N/A   Clear
7:15 AM 41.4 °F - 36.9 °F 84% 30.16 in 10.0 mi Calm Calm - N/A   Clear
7:35 AM 44.6 °F - 37.6 °F 76% 30.17 in 10.0 mi Calm Calm - N/A   Clear
7:55 AM 49.1 °F - 37.0 °F 63% 30.17 in 10.0 mi Calm Calm - N/A   Clear
8:15 AM 51.4 °F - 36.9 °F 58% 30.19 in 10.0 mi Calm Calm - N/A   Clear
8:35 AM 51.6 °F - 33.1 °F 49% 30.19 in 10.0 mi ENE 4.6 mph - N/A   Clear
8:55 AM 54.0 °F - 27.7 °F 36% 30.19 in 10.0 mi ENE 4.6 mph - N/A   Clear
9:15 AM 54.9 °F - 30.6 °F 40% 30.19 in 10.0 mi East 5.8 mph - N/A   Clear
9:35 AM 56.5 °F - 32.0 °F 39% 30.18 in 10.0 mi ENE 4.6 mph - N/A   Clear
9:55 AM 56.5 °F - 31.6 °F 39% 30.18 in 10.0 mi NE 3.5 mph - N/A   Clear
10:15 AM 59.0 °F - 29.8 °F 33% 30.18 in 10.0 mi Calm Calm - N/A   Clear
10:34 AM 59.0 °F - 26.1 °F 28% 30.17 in 10.0 mi Calm Calm - N/A   Clear
10:55 AM 60.4 °F - 26.4 °F 27% 30.17 in 10.0 mi Calm Calm - N/A   Clear
11:15 AM 61.7 °F - 27.7 °F 28% 30.17 in 10.0 mi Calm Calm - N/A   Clear
11:34 AM 62.1 °F - 28.6 °F 28% 30.17 in 10.0 mi Calm Calm - N/A   Clear
11:55 AM 63.5 °F - 30.2 °F 29% 30.17 in 10.0 mi Calm Calm - N/A   Clear
12:15 PM 64.0 °F - 30.6 °F 28% 30.17 in 10.0 mi Calm Calm - N/A   Clear
12:34 PM 64.4 °F - 32.0 °F 30% 30.17 in 10.0 mi SE 4.6 mph - N/A   Clear
12:55 PM 66.7 °F - 32.5 °F 28% 30.16 in 10.0 mi Calm Calm - N/A   Scattered Clouds
1:15 PM 70.3 °F - 34.2 °F 26% 30.16 in 10.0 mi West 4.6 mph - N/A   Mostly Cloudy
1:34 PM 68.2 °F - 32.7 °F 27% 30.17 in 10.0 mi Calm Calm - N/A   Overcast
1:55 PM 66.2 °F - 34.7 °F 31% 30.17 in 10.0 mi SSW 5.8 mph - N/A   Overcast
2:15 PM 67.5 °F - 34.9 °F 30% 30.17 in 10.0 mi WSW 3.5 mph - N/A   Overcast
2:34 PM 66.7 °F - 35.2 °F 31% 30.17 in 10.0 mi NW 4.6 mph - N/A   Mostly Cloudy
2:55 PM 67.3 °F - 36.7 °F 32% 30.17 in 10.0 mi WNW 11.5 mph - N/A   Mostly Cloudy
3:15 PM 65.5 °F - 36.1 °F 34% 30.17 in 10.0 mi WNW 9.2 mph - N/A   Scattered Clouds
3:35 PM 64.2 °F - 36.0 °F 35% 30.17 in 10.0 mi NW 10.4 mph - N/A   Scattered Clouds
3:55 PM 62.8 °F - 36.7 °F 38% 30.18 in 10.0 mi NW 10.4 mph - N/A   Overcast
4:15 PM 62.4 °F - 37.0 °F 39% 30.18 in 10.0 mi NNW 8.1 mph - N/A   Overcast
4:34 PM 62.4 °F - 37.9 °F 40% 30.18 in 10.0 mi NNW 6.9 mph - N/A   Overcast
4:55 PM 62.8 °F - 37.8 °F 40% 30.18 in 10.0 mi NNW 9.2 mph - N/A   Overcast
5:15 PM 61.7 °F - 38.3 °F 42% 30.18 in 10.0 mi NNW 9.2 mph - N/A   Mostly Cloudy
5:35 PM 61.0 °F - 39.0 °F 44% 30.17 in 10.0 mi North 9.2 mph - N/A   Scattered Clouds
5:55 PM 59.0 °F - 39.4 °F 48% 30.18 in 10.0 mi North 5.8 mph - N/A   Scattered Clouds
6:14 PM 59.0 °F - 39.7 °F 49% 30.18 in 10.0 mi North 6.9 mph - N/A   Clear
6:35 PM 59.0 °F - 40.3 °F 50% 30.17 in 10.0 mi North 4.6 mph - N/A   Scattered Clouds
6:55 PM 59.0 °F - 39.4 °F 48% 30.17 in 10.0 mi NNE 5.8 mph - N/A   Scattered Clouds
7:14 PM 59.0 °F - 40.3 °F 50% 30.17 in 10.0 mi North 3.5 mph - N/A   Scattered Clouds
7:35 PM 59.0 °F - 41.4 °F 52% 30.17 in 10.0 mi Calm Calm - N/A   Scattered Clouds
7:55 PM 56.5 °F - 39.7 °F 54% 30.17 in 10.0 mi North 3.5 mph - N/A   Mostly Cloudy
8:14 PM 56.5 °F - 41.0 °F 56% 30.17 in 10.0 mi Calm Calm - N/A   Overcast
8:35 PM 56.5 °F - 42.6 °F 60% 30.17 in 10.0 mi Calm Calm - N/A   Overcast
8:55 PM 56.5 °F - 43.9 °F 63% 30.18 in 10.0 mi North 3.5 mph - N/A   Overcast
9:14 PM 56.5 °F - 44.4 °F 64% 30.17 in 10.0 mi NNE 4.6 mph - N/A   Mostly Cloudy
9:35 PM 54.0 °F - 42.1 °F 64% 30.17 in 10.0 mi NNE 5.8 mph - N/A   Clear
9:55 PM 54.0 °F - 40.3 °F 60% 30.17 in 10.0 mi NNE 3.5 mph - N/A   Clear
10:14 PM 52.5 °F - 40.1 °F 63% 30.18 in 10.0 mi NE 3.5 mph - N/A   Scattered Clouds
10:35 PM 51.4 °F - 39.0 °F 63% 30.18 in 10.0 mi Calm Calm - N/A   Scattered Clouds
10:55 PM 51.6 °F - 40.1 °F 65% 30.18 in 10.0 mi Calm Calm - N/A   Mostly Cloudy
11:14 PM 51.4 °F - 40.8 °F 67% 30.17 in 10.0 mi Calm Calm - N/A   Overcast
11:35 PM 51.4 °F - 42.3 °F 71% 30.17 in 10.0 mi Calm Calm - N/A   Mostly Cloudy
11:55 PM 51.4 °F - 41.7 °F 69% 30.17 in 10.0 mi Calm Calm - N/A   Mostly Cloudy